Flag for Canada Weather past 2 weeks in Lethbridge, Alberta, Canada

Now
25 °F

Passing clouds.


Feels Like: 12 °F
Forecast: 15 / 24 °F
Wind: 16 mph from Southwest

Location: Lethbridge

Current Time: Dec 25, 2014 at 8:46:24 PM

Latest Report: Dec 25, 2014 at 8:00 PM


Visibility: 15 mi

Pressure: 30.00 "Hg

Humidity: 74%

Dew point: 18 °F

Location of LethbridgeLocation

Historic Weather in Lethbridge — Graph

°F

Lethbridge temperature yesterday

Maximum temperature yesterday: 39 °F (at 12:00 AM)
Minimum temperature yesterday: 27 °F (at 9:00 PM)
Average temperature yesterday: 34 °F

Past Weeks' High & Low Weather Summary

 TemperatureHumidityPressure
High55 °F (Dec 12, 1:00 PM)100% (Dec 13, 1:00 PM)30.47 "Hg (Dec 13, 1:00 PM)
Low0 °F (Dec 15, 4:00 AM)44% (Dec 11, 4:00 AM)29.25 "Hg (Dec 21, 7:00 AM)
Average31 °F79%29.92 "Hg
* Reported Dec 10 7:00 PM — Dec 25 7:00 PM, Lethbridge, Weather by CustomWeather, © 2014

Note: Actual official high and low records may vary slightly from our data, if they occured in-between our weather recording intervals... More about our weather records

Advertising

Lethbridge weather history for previous 24 hours

 ConditionsComfort  
Time TempWeatherWind HumidityBarometerVisibility
7:00 PM
Dec 25
23 °FPassing clouds.10 mph80%30.00 "Hg15 mi
6:00 PM21 °FPassing clouds.10 mph86%30.01 "Hg15 mi
5:00 PM23 °FPassing clouds.7 mph86%30.01 "Hg40 mi
4:00 PM27 °FPassing clouds.9 mph80%30.01 "Hg40 mi
3:00 PM28 °FPassing clouds.9 mph80%30.00 "Hg40 mi
2:00 PM30 °FScattered clouds.18 mph69%29.99 "Hg40 mi
1:00 PM30 °FPartly sunny.8 mph69%30.01 "Hg40 mi
12:00 PM27 °FPartly sunny.2 mph80%30.03 "Hg40 mi
11:00 AM27 °FPartly sunny.5 mph80%30.05 "Hg40 mi
10:00 AM25 °FPartly sunny.8 mph86%30.05 "Hg40 mi
9:00 AM25 °FPartly sunny.2 mph93%30.03 "Hg40 mi
8:00 AM23 °FOvercast.2 mph93%30.01 "Hg15 mi
7:00 AM23 °FMostly cloudy.2 mph93%29.99 "Hg15 mi
6:00 AM25 °FPassing clouds.5 mph93%29.97 "Hg15 mi
5:00 AM27 °FOvercast.6 mph86%29.95 "Hg9 mi
4:00 AM25 °FOvercast.12 mph86%29.93 "Hg9 mi
3:00 AM25 °FPassing clouds.7 mph86%29.91 "Hg9 mi
2:00 AM27 °FOvercast.10 mph86%29.88 "Hg9 mi
12:00 AM27 °FMostly cloudy.10 mph80%29.84 "Hg9 mi
11:00 PM
Dec 24
27 °FOvercast.12 mph80%29.82 "Hg9 mi
10:00 PM28 °FOvercast.13 mph74%29.80 "Hg15 mi
9:00 PM27 °FOvercast.7 mph86%29.79 "Hg15 mi
8:00 PM30 °FOvercast.3 mph69%29.75 "Hg15 mi
Weather by CustomWeather, © 2014

See weather overviewHow to use our weather pages